Overview Statistics Trail Chart Weather Telemetry Raw packets
 

This is the latest recevied weather packets stored in our database for station/object KI6SYE. If no packets are shown the sender has not sent any weather packets the latest 10 day(s).

<< 45 46 47 48 49 50 51 >>
Time Temp. Humidity Pressure Rain* Wind** Luminosity Snow
1788368696 21.67° C 76% 1016 hPa 0 mm - 515 W/m² -
1788368392 21.67° C 76% 1016.2 hPa 0 mm - 513 W/m² -
1788368091 21.67° C 77% 1016.1 hPa 0 mm - 497 W/m² -
1788367792 21.67° C 76% 1016.2 hPa 0 mm - 487 W/m² -
1788367487 21.67° C 76% 1016.1 hPa 0 mm - 457 W/m² -
1788367186 21.67° C 76% 1016.1 hPa 0 mm - 483 W/m² -
1788366881 22.22° C 75% 1016.1 hPa 0 mm - 513 W/m² -
1788366579 22.78° C 73% 1016.1 hPa 0 mm - 526 W/m² -
1788366275 23.33° C 70% 1016 hPa 0 mm - 485 W/m² -
1788365974 22.78° C 71% 1016 hPa 0 mm - 460 W/m² -
1788365669 22.78° C 73% 1016.1 hPa 0 mm - 424 W/m² -
1788365365 22.78° C 72% 1016.2 hPa 0 mm - 388 W/m² -
1788365061 22.22° C 74% 1016 hPa 0 mm - 357 W/m² -
1788364759 22.22° C 74% 1016.3 hPa 0 mm - 343 W/m² -
1788364454 22.78° C 72% 1016.1 hPa 0 mm - 330 W/m² -
1788364148 22.22° C 74% 1016.1 hPa 0 mm - 290 W/m² -
1788363844 21.67° C 76% 1016.1 hPa 0 mm - 276 W/m² -
1788363543 21.67° C 76% 1015.9 hPa 0 mm - 256 W/m² -
1788363251 21.67° C 77% 1016 hPa 0 mm - 242 W/m² -
1788362938 21.67° C 76% 1016 hPa 0 mm - 225 W/m² -
1788362634 21.67° C 75% 1016 hPa 0 mm - 208 W/m² -
1788362329 21.11° C 76% 1015.8 hPa 0 mm - 193 W/m² -
1788362024 21.67° C 74% 1016 hPa 0 mm - 178 W/m² -
1788361719 21.67° C 73% 1016 hPa 0 mm - 164 W/m² -
1788361416 21.11° C 75% 1016.2 hPa 0 mm - 148 W/m² -

* Rain latest hour (hover to see other rain measurements)
** Current wind speed in m/s (hover to see current wind gust speed)